| time (UTC) | temp F | wind direction | speed MPH | gust MPH | rain 1hr in | rain 24hr in | rain mn in | humidity % | barometer mb |
| 20260509132522 | 61 | 143 | 6.0 | 12.0 | 0.00 | 0.00 | 0.00 | 81 | 1012.9 |
| 20260509132021 | 61 | 186 | 6.0 | 11.0 | 0.00 | 0.00 | 0.00 | 82 | 1013.1 |
| 20260509131543 | 61 | 182 | 6.0 | 11.0 | 0.00 | 0.00 | 0.00 | 82 | 1013.2 |
| 20260509131026 | 61 | 209 | 3.0 | 11.0 | 0.00 | 0.00 | 0.00 | 83 | 1015.3 |
| 20260509131022 | 60 | 227 | 3.0 | 8.0 | 0.00 | 0.00 | 0.00 | 83 | 1013.2 |
| 20260509130521 | 59 | 226 | 2.0 | 12.0 | 0.00 | 0.00 | 0.00 | 83 | 1013.3 |
| 20260509130040 | 59 | 220 | 3.0 | 12.0 | 0.00 | 0.00 | 0.00 | 83 | 1013.3 |
| 20260509130024 | 60 | 220 | 4.0 | 11.0 | 0.00 | 0.00 | 0.00 | 83 | 1015.3 |
| 20260509125524 | 59 | 214 | 6.0 | 10.0 | 0.00 | 0.00 | 0.00 | 83 | 1013.4 |
| 20260509125028 | 59 | 177 | 3.0 | 6.0 | 0.00 | 0.00 | 0.00 | 85 | 1015.3 |
| 20260509125025 | 59 | 195 | 2.0 | 8.0 | 0.00 | 0.00 | 0.00 | 85 | 1013.3 |
| 20260509124541 | 58 | 174 | 3.0 | 8.0 | 0.00 | 0.00 | 0.00 | 85 | 1013.5 |
| 20260509124021 | 57 | 168 | 3.0 | 7.0 | 0.00 | 0.00 | 0.00 | 86 | 1013.6 |
| 20260509124007 | 58 | 210 | 2.0 | 5.0 | 0.00 | 0.00 | 0.00 | 86 | 1015.5 |
| 20260509123521 | 57 | 185 | 2.0 | 8.0 | 0.00 | 0.00 | 0.00 | 87 | 1013.4 |
| 20260509123043 | 56 | 249 | 2.0 | 8.0 | 0.00 | 0.00 | 0.00 | 87 | 1013.4 |
| 20260509123008 | 57 | 210 | 1.0 | 4.0 | 0.00 | 0.00 | 0.00 | 87 | 1015.4 |
| 20260509122521 | 55 | 192 | 2.0 | 6.0 | 0.00 | 0.00 | 0.00 | 88 | 1013.0 |
| 20260509122021 | 52 | 187 | 0.0 | 3.0 | 0.00 | 0.00 | 0.00 | 88 | 1013.0 |
| 20260509121952 | 52 | 157 | 0.0 | 2.0 | 0.00 | 0.00 | 0.00 | 88 | 1015.0 |
| 20260509121544 | 50 | 167 | 1.0 | 3.0 | 0.00 | 0.00 | 0.00 | 88 | 1013.0 |
| 20260509121021 | 50 | 178 | 0.0 | 3.0 | 0.00 | 0.00 | 0.00 | 88 | 1013.0 |
| 20260509120943 | 50 | 196 | 0.0 | 1.0 | 0.00 | 0.00 | 0.00 | 88 | 1015.2 |
| 20260509120521 | 49 | 184 | 0.0 | 2.0 | 0.00 | 0.00 | 0.00 | 88 | 1013.0 |
| 20260509120058 | 49 | 0 | 0.0 | 1.0 | 0.00 | 0.00 | 0.00 | 88 | 1013.0 |
| 20260509120004 | 49 | 123 | 0.0 | 0.0 | 0.00 | 0.00 | 0.00 | 88 | 1015.0 |
| 20260509115524 | 48 | 0 | 0.0 | 1.0 | 0.00 | 0.00 | 0.00 | 88 | 1012.9 |
| 20260509115021 | 48 | 0 | 0.0 | 1.0 | 0.00 | 0.00 | 0.00 | 88 | 1012.8 |
| 20260509114938 | 48 | 153 | 0.0 | 0.0 | 0.00 | 0.00 | 0.00 | 88 | 1014.8 |
| 20260509114540 | 47 | 0 | 0.0 | 1.0 | 0.00 | 0.00 | 0.00 | 87 | 1012.9 |
| 20260509114022 | 47 | 0 | 0.0 | 1.0 | 0.00 | 0.00 | 0.00 | 88 | 1013.0 |
| 20260509113919 | 47 | 153 | 0.0 | 0.0 | 0.00 | 0.00 | 0.00 | 88 | 1014.9 |
| 20260509113522 | 47 | 153 | 0.0 | 1.0 | 0.00 | 0.00 | 0.00 | 87 | 1012.9 |
| 20260509113042 | 46 | 0 | 0.0 | 1.0 | 0.00 | 0.00 | 0.00 | 87 | 1012.8 |
| 20260509112852 | 47 | 153 | 0.0 | 0.0 | 0.00 | 0.00 | 0.00 | 87 | 1014.9 |
| 20260509112521 | 46 | 0 | 0.0 | 1.0 | 0.00 | 0.00 | 0.00 | 87 | 1012.8 |
| 20260509112021 | 46 | 0 | 0.0 | 1.0 | 0.00 | 0.00 | 0.00 | 87 | 1012.9 |
| 20260509111541 | 46 | 0 | 0.0 | 1.0 | 0.00 | 0.00 | 0.00 | 87 | 1012.8 |
| 20260509111022 | 45 | 0 | 0.0 | 1.0 | 0.00 | 0.00 | 0.00 | 86 | 1012.9 |
| 20260509110714 | 46 | 153 | 0.0 | 0.0 | 0.00 | 0.00 | 0.00 | 86 | 1014.8 |
| 20260509110522 | 45 | 0 | 0.0 | 1.0 | 0.00 | 0.00 | 0.00 | 86 | 1012.9 |
| 20260509110044 | 45 | 153 | 0.0 | 1.0 | 0.00 | 0.00 | 0.00 | 86 | 1012.8 |
| 20260509105726 | 46 | 153 | 0.0 | 0.0 | 0.00 | 0.00 | 0.00 | 86 | 1014.8 |
| 20260509105521 | 45 | 0 | 0.0 | 0.0 | 0.00 | 0.00 | 0.00 | 86 | 1012.9 |
| 20260509105021 | 45 | 0 | 0.0 | 0.0 | 0.00 | 0.00 | 0.00 | 86 | 1012.7 |
| 20260509104722 | 46 | 153 | 0.0 | 0.0 | 0.00 | 0.00 | 0.00 | 86 | 1014.7 |
| 20260509104536 | 45 | 0 | 0.0 | 1.0 | 0.00 | 0.00 | 0.00 | 86 | 1012.6 |
| 20260509104021 | 45 | 0 | 0.0 | 1.0 | 0.00 | 0.00 | 0.00 | 86 | 1012.5 |
| 20260509103649 | 46 | 153 | 0.0 | 0.0 | 0.00 | 0.00 | 0.00 | 86 | 1014.5 |
| 20260509103521 | 46 | 0 | 0.0 | 1.0 | 0.00 | 0.00 | 0.00 | 86 | 1012.4 |
| 20260509103037 | 46 | 0 | 0.0 | 1.0 | 0.00 | 0.00 | 0.00 | 86 | 1012.3 |
| 20260509102521 | 46 | 0 | 0.0 | 1.0 | 0.00 | 0.00 | 0.00 | 85 | 1012.3 |
| 20260509102021 | 46 | 0 | 0.0 | 1.0 | 0.00 | 0.00 | 0.00 | 85 | 1012.3 |
| 20260509101552 | 46 | 0 | 0.0 | 1.0 | 0.00 | 0.00 | 0.00 | 85 | 1011.9 |
| 20260509101024 | 46 | 0 | 0.0 | 1.0 | 0.00 | 0.00 | 0.00 | 85 | 1012.0 |
| 20260509100521 | 46 | 153 | 0.0 | 1.0 | 0.00 | 0.00 | 0.00 | 85 | 1012.0 |
| 20260509100412 | 47 | 153 | 0.0 | 0.0 | 0.00 | 0.00 | 0.00 | 85 | 1014.1 |
| 20260509100045 | 46 | 0 | 0.0 | 1.0 | 0.00 | 0.00 | 0.00 | 85 | 1012.0 |
| 20260509095521 | 46 | 0 | 0.0 | 1.0 | 0.00 | 0.00 | 0.00 | 85 | 1012.0 |
| 20260509095348 | 47 | 153 | 0.0 | 0.0 | 0.00 | 0.00 | 0.00 | 85 | 1014.0 |
| 20260509095021 | 46 | 0 | 0.0 | 1.0 | 0.00 | 0.00 | 0.00 | 85 | 1011.9 |
| 20260509094541 | 46 | 153 | 0.0 | 1.0 | 0.00 | 0.00 | 0.00 | 85 | 1012.0 |
| 20260509094315 | 47 | 153 | 0.0 | 0.0 | 0.00 | 0.00 | 0.00 | 85 | 1013.9 |
| 20260509094021 | 47 | 153 | 0.0 | 1.0 | 0.00 | 0.00 | 0.00 | 84 | 1011.9 |
| 20260509093521 | 47 | 0 | 0.0 | 2.0 | 0.00 | 0.00 | 0.00 | 84 | 1011.9 |
| 20260509093331 | 47 | 153 | 0.0 | 0.0 | 0.00 | 0.00 | 0.00 | 84 | 1014.0 |
| 20260509093041 | 47 | 0 | 0.0 | 2.0 | 0.00 | 0.00 | 0.00 | 84 | 1012.0 |
| 20260509092521 | 47 | 0 | 0.0 | 1.0 | 0.00 | 0.00 | 0.00 | 84 | 1012.1 |
| 20260509092337 | 47 | 153 | 0.0 | 0.0 | 0.00 | 0.00 | 0.00 | 84 | 1014.1 |
| 20260509092021 | 47 | 0 | 0.0 | 1.0 | 0.00 | 0.00 | 0.00 | 84 | 1012.2 |
| 20260509091540 | 47 | 0 | 0.0 | 1.0 | 0.00 | 0.00 | 0.00 | 84 | 1012.0 |
| 20260509091315 | 48 | 153 | 0.0 | 0.0 | 0.00 | 0.00 | 0.00 | 84 | 1014.1 |
| 20260509091021 | 47 | 153 | 0.0 | 1.0 | 0.00 | 0.00 | 0.00 | 84 | 1012.0 |
| 20260509090521 | 47 | 0 | 0.0 | 1.0 | 0.00 | 0.00 | 0.00 | 83 | 1012.1 |
| 20260509090046 | 47 | 0 | 0.0 | 1.0 | 0.00 | 0.00 | 0.00 | 83 | 1012.2 |
| 20260509085520 | 48 | 0 | 0.0 | 1.0 | 0.00 | 0.00 | 0.00 | 83 | 1012.4 |
| 20260509085021 | 48 | 0 | 0.0 | 1.0 | 0.00 | 0.00 | 0.00 | 83 | 1012.4 |
| 20260509084546 | 48 | 0 | 0.0 | 1.0 | 0.00 | 0.00 | 0.00 | 83 | 1012.7 |
| 20260509084114 | 49 | 153 | 0.0 | 0.0 | 0.00 | 0.00 | 0.00 | 83 | 1014.6 |
| 20260509084021 | 48 | 0 | 0.0 | 1.0 | 0.00 | 0.00 | 0.00 | 83 | 1012.7 |
| 20260509083521 | 48 | 0 | 0.0 | 1.0 | 0.00 | 0.00 | 0.00 | 83 | 1012.7 |
| 20260509083041 | 49 | 0 | 0.0 | 1.0 | 0.00 | 0.00 | 0.00 | 83 | 1012.7 |
| 20260509082521 | 49 | 0 | 0.0 | 1.0 | 0.00 | 0.00 | 0.00 | 83 | 1012.7 |
| 20260509082025 | 49 | 0 | 0.0 | 1.0 | 0.00 | 0.00 | 0.00 | 83 | 1012.7 |
| 20260509081944 | 49 | 153 | 0.0 | 0.0 | 0.00 | 0.00 | 0.00 | 83 | 1014.6 |
| 20260509081542 | 49 | 0 | 0.0 | 2.0 | 0.00 | 0.00 | 0.00 | 83 | 1012.7 |
| 20260509081025 | 49 | 0 | 0.0 | 2.0 | 0.00 | 0.00 | 0.00 | 83 | 1012.7 |
| 20260509080521 | 49 | 0 | 0.0 | 2.0 | 0.00 | 0.00 | 0.00 | 83 | 1012.7 |
| 20260509080048 | 50 | 0 | 0.0 | 2.0 | 0.00 | 0.00 | 0.00 | 83 | 1012.7 |
| 20260509075852 | 50 | 153 | 0.0 | 0.0 | 0.00 | 0.00 | 0.00 | 83 | 1014.8 |
| 20260509075523 | 50 | 153 | 0.0 | 2.0 | 0.00 | 0.00 | 0.00 | 82 | 1012.8 |
| 20260509075022 | 50 | 0 | 0.0 | 2.0 | 0.00 | 0.00 | 0.00 | 82 | 1012.8 |
| 20260509074552 | 50 | 153 | 0.0 | 2.0 | 0.00 | 0.00 | 0.00 | 81 | 1012.6 |
| 20260509074021 | 50 | 176 | 0.0 | 1.0 | 0.00 | 0.00 | 0.00 | 81 | 1012.7 |
| 20260509073741 | 51 | 192 | 0.0 | 0.0 | 0.00 | 0.00 | 0.00 | 81 | 1014.5 |
| 20260509073522 | 50 | 0 | 0.0 | 0.0 | 0.00 | 0.00 | 0.00 | 81 | 1012.4 |
| 20260509073112 | 50 | 0 | 0.0 | 0.0 | 0.00 | 0.00 | 0.00 | 81 | 1012.6 |
| 20260509072803 | 51 | 192 | 0.0 | 0.0 | 0.00 | 0.00 | 0.00 | 81 | 1014.7 |
| 20260509072523 | 51 | 0 | 0.0 | 0.0 | 0.00 | 0.00 | 0.00 | 81 | 1012.7 |
| 20260509072023 | 51 | 0 | 0.0 | 0.0 | 0.00 | 0.00 | 0.00 | 82 | 1012.7 |
| 20260509071758 | 51 | 192 | 0.0 | 0.0 | 0.00 | 0.00 | 0.00 | 82 | 1014.8 |
| 20260509071540 | 51 | 0 | 0.0 | 0.0 | 0.00 | 0.00 | 0.00 | 82 | 1012.8 |
| 20260509071021 | 51 | 0 | 0.0 | 1.0 | 0.00 | 0.00 | 0.00 | 82 | 1012.9 |
| 20260509070813 | 52 | 192 | 0.0 | 0.0 | 0.00 | 0.00 | 0.00 | 82 | 1014.8 |
| 20260509070521 | 51 | 0 | 0.0 | 1.0 | 0.00 | 0.00 | 0.00 | 82 | 1012.8 |
| 20260509070045 | 51 | 0 | 0.0 | 1.0 | 0.00 | 0.00 | 0.00 | 82 | 1012.9 |
| 20260509065748 | 52 | 192 | 0.0 | 0.0 | 0.00 | 0.00 | 0.00 | 81 | 1014.9 |
| 20260509065520 | 51 | 0 | 0.0 | 0.0 | 0.00 | 0.00 | 0.00 | 81 | 1012.9 |
| 20260509065024 | 52 | 0 | 0.0 | 1.0 | 0.00 | 0.00 | 0.00 | 81 | 1012.9 |
| 20260509064727 | 52 | 192 | 0.0 | 0.0 | 0.00 | 0.00 | 0.00 | 81 | 1015.0 |
| 20260509064541 | 52 | 0 | 0.0 | 1.0 | 0.00 | 0.00 | 0.00 | 80 | 1012.9 |
| 20260509064022 | 53 | 0 | 0.0 | 1.0 | 0.00 | 0.00 | 0.00 | 79 | 1013.1 |
| 20260509063521 | 53 | 0 | 0.0 | 1.0 | 0.00 | 0.00 | 0.00 | 78 | 1013.1 |
| 20260509063041 | 54 | 0 | 0.0 | 1.0 | 0.00 | 0.00 | 0.00 | 77 | 1013.1 |
| 20260509062521 | 54 | 0 | 0.0 | 2.0 | 0.00 | 0.00 | 0.00 | 75 | 1013.2 |
| 20260509062022 | 55 | 0 | 0.0 | 3.0 | 0.00 | 0.00 | 0.00 | 73 | 1013.4 |
| 20260509061540 | 55 | 0 | 1.0 | 6.0 | 0.00 | 0.00 | 0.00 | 72 | 1013.4 |
| 20260509061021 | 55 | 146 | 1.0 | 6.0 | 0.00 | 0.00 | 0.00 | 72 | 1013.4 |
| 20260509060525 | 56 | 178 | 2.0 | 4.0 | 0.00 | 0.00 | 0.00 | 72 | 1013.5 |
| 20260509060211 | 56 | 191 | 1.0 | 6.0 | 0.00 | 0.00 | 0.00 | 73 | 1015.6 |
| 20260509060046 | 56 | 179 | 1.0 | 8.0 | 0.00 | 0.00 | 0.00 | 72 | 1013.6 |
| 20260509055521 | 55 | 181 | 2.0 | 8.0 | 0.00 | 0.00 | 0.00 | 73 | 1013.6 |
| 20260509055219 | 56 | 166 | 1.0 | 4.0 | 0.00 | 0.00 | 0.00 | 73 | 1015.8 |
| 20260509055020 | 55 | 191 | 2.0 | 7.0 | 0.00 | 0.00 | 0.00 | 73 | 1013.7 |
| 20260509054548 | 55 | 180 | 2.0 | 7.0 | 0.00 | 0.00 | 0.00 | 73 | 1013.7 |
| 20260509054241 | 55 | 193 | 2.0 | 6.0 | 0.00 | 0.00 | 0.00 | 74 | 1015.7 |
| 20260509054022 | 55 | 167 | 2.0 | 7.0 | 0.00 | 0.00 | 0.00 | 74 | 1013.8 |
| 20260509053521 | 54 | 158 | 2.0 | 7.0 | 0.00 | 0.00 | 0.00 | 74 | 1013.9 |
| 20260509053218 | 55 | 156 | 1.0 | 6.0 | 0.00 | 0.00 | 0.00 | 75 | 1015.9 |
| 20260509053041 | 54 | 176 | 2.0 | 7.0 | 0.00 | 0.00 | 0.00 | 75 | 1013.8 |
| 20260509052521 | 54 | 149 | 2.0 | 6.0 | 0.00 | 0.00 | 0.00 | 76 | 1013.9 |
| 20260509052231 | 54 | 178 | 1.0 | 5.0 | 0.00 | 0.00 | 0.00 | 77 | 1016.0 |
| 20260509052021 | 53 | 157 | 2.0 | 6.0 | 0.00 | 0.00 | 0.00 | 78 | 1014.1 |
| 20260509051540 | 53 | 190 | 1.0 | 7.0 | 0.00 | 0.00 | 0.00 | 79 | 1014.1 |
| 20260509051236 | 53 | 187 | 1.0 | 6.0 | 0.00 | 0.00 | 0.00 | 80 | 1016.2 |
| 20260509051021 | 52 | 168 | 2.0 | 7.0 | 0.00 | 0.00 | 0.00 | 80 | 1014.2 |
| 20260509050522 | 51 | 162 | 1.0 | 7.0 | 0.00 | 0.00 | 0.00 | 82 | 1014.2 |
| 20260509050041 | 51 | 149 | 2.0 | 7.0 | 0.00 | 0.00 | 0.00 | 83 | 1014.2 |
| 20260509045522 | 50 | 162 | 2.0 | 7.0 | 0.00 | 0.00 | 0.00 | 85 | 1014.4 |
| 20260509045023 | 50 | 175 | 1.0 | 5.0 | 0.00 | 0.00 | 0.00 | 85 | 1014.4 |
| 20260509044541 | 50 | 172 | 2.0 | 4.0 | 0.00 | 0.00 | 0.00 | 85 | 1014.4 |
| 20260509044021 | 50 | 156 | 0.0 | 2.0 | 0.00 | 0.00 | 0.00 | 85 | 1014.4 |
| 20260509043953 | 50 | 269 | 0.0 | 0.0 | 0.00 | 0.00 | 0.00 | 85 | 1016.4 |
| 20260509043520 | 50 | 0 | 0.0 | 2.0 | 0.00 | 0.00 | 0.00 | 85 | 1014.4 |
| 20260509043038 | 50 | 0 | 0.0 | 0.0 | 0.00 | 0.00 | 0.00 | 85 | 1014.3 |
| 20260509042941 | 50 | 269 | 0.0 | 0.0 | 0.00 | 0.00 | 0.00 | 85 | 1016.3 |
| 20260509042521 | 50 | 0 | 0.0 | 0.0 | 0.00 | 0.00 | 0.00 | 85 | 1014.3 |
| 20260509042021 | 50 | 0 | 0.0 | 1.0 | 0.00 | 0.00 | 0.00 | 85 | 1014.3 |
| 20260509041924 | 50 | 269 | 0.0 | 0.0 | 0.00 | 0.00 | 0.00 | 85 | 1016.4 |
| 20260509041542 | 50 | 0 | 0.0 | 1.0 | 0.00 | 0.00 | 0.00 | 85 | 1014.4 |
| 20260509041020 | 50 | 0 | 0.0 | 0.0 | 0.00 | 0.00 | 0.00 | 85 | 1014.3 |
| 20260509040910 | 51 | 269 | 0.0 | 0.0 | 0.00 | 0.00 | 0.00 | 85 | 1016.3 |
| 20260509040521 | 50 | 0 | 0.0 | 0.0 | 0.00 | 0.00 | 0.00 | 84 | 1014.3 |
| 20260509040057 | 50 | 0 | 0.0 | 0.0 | 0.00 | 0.00 | 0.00 | 84 | 1014.4 |
| 20260509035836 | 51 | 269 | 0.0 | 0.0 | 0.00 | 0.00 | 0.00 | 84 | 1016.4 |
| 20260509035521 | 50 | 0 | 0.0 | 0.0 | 0.00 | 0.00 | 0.00 | 84 | 1014.4 |
| 20260509035021 | 50 | 0 | 0.0 | 1.0 | 0.00 | 0.00 | 0.00 | 84 | 1014.4 |
| 20260509034831 | 51 | 269 | 0.0 | 0.0 | 0.00 | 0.00 | 0.00 | 84 | 1016.4 |
| 20260509034548 | 50 | 0 | 0.0 | 1.0 | 0.00 | 0.00 | 0.00 | 84 | 1014.3 |
| 20260509034022 | 50 | 0 | 0.0 | 1.0 | 0.00 | 0.00 | 0.00 | 84 | 1014.3 |
| 20260509033844 | 51 | 269 | 0.0 | 0.0 | 0.00 | 0.00 | 0.00 | 84 | 1016.3 |
| 20260509033521 | 51 | 0 | 0.0 | 1.0 | 0.00 | 0.00 | 0.00 | 84 | 1014.3 |
| 20260509033041 | 51 | 0 | 0.0 | 1.0 | 0.00 | 0.00 | 0.00 | 84 | 1014.4 |
| 20260509032525 | 51 | 0 | 0.0 | 1.0 | 0.00 | 0.00 | 0.00 | 84 | 1014.3 |
| 20260509032021 | 51 | 0 | 0.0 | 1.0 | 0.00 | 0.00 | 0.00 | 84 | 1014.2 |
| 20260509031537 | 51 | 0 | 0.0 | 1.0 | 0.00 | 0.00 | 0.00 | 84 | 1014.3 |
| 20260509031021 | 51 | 0 | 0.0 | 1.0 | 0.00 | 0.00 | 0.00 | 83 | 1014.4 |
| 20260509030602 | 51 | 269 | 0.0 | 0.0 | 0.00 | 0.00 | 0.00 | 83 | 1016.5 |
| 20260509030521 | 51 | 0 | 0.0 | 1.0 | 0.00 | 0.00 | 0.00 | 83 | 1014.4 |
| 20260509030047 | 51 | 0 | 0.0 | 1.0 | 0.00 | 0.00 | 0.00 | 83 | 1014.4 |
| 20260509025540 | 51 | 269 | 0.0 | 0.0 | 0.00 | 0.00 | 0.00 | 83 | 1016.5 |
| 20260509025521 | 51 | 0 | 0.0 | 1.0 | 0.00 | 0.00 | 0.00 | 83 | 1014.4 |
| 20260509025022 | 51 | 0 | 0.0 | 1.0 | 0.00 | 0.00 | 0.00 | 82 | 1014.5 |
| 20260509024549 | 51 | 269 | 0.0 | 0.0 | 0.00 | 0.00 | 0.00 | 82 | 1016.6 |
| 20260509024544 | 51 | 0 | 0.0 | 1.0 | 0.00 | 0.00 | 0.00 | 82 | 1014.5 |
| 20260509024021 | 51 | 0 | 0.0 | 1.0 | 0.00 | 0.00 | 0.00 | 82 | 1014.6 |
| 20260509023520 | 51 | 0 | 0.0 | 1.0 | 0.00 | 0.00 | 0.00 | 82 | 1014.8 |
| 20260509023515 | 51 | 269 | 0.0 | 0.0 | 0.00 | 0.00 | 0.00 | 82 | 1016.8 |
| 20260509023044 | 51 | 0 | 0.0 | 1.0 | 0.00 | 0.00 | 0.00 | 81 | 1014.6 |
| 20260509022520 | 51 | 0 | 0.0 | 1.0 | 0.00 | 0.00 | 0.00 | 81 | 1014.7 |
| 20260509022021 | 51 | 0 | 0.0 | 1.0 | 0.00 | 0.00 | 0.00 | 81 | 1014.6 |
| 20260509021544 | 51 | 0 | 0.0 | 1.0 | 0.00 | 0.00 | 0.00 | 80 | 1014.7 |
| 20260509021420 | 52 | 269 | 0.0 | 0.0 | 0.00 | 0.00 | 0.00 | 80 | 1016.8 |
| 20260509021018 | 51 | 0 | 0.0 | 1.0 | 0.00 | 0.00 | 0.00 | 80 | 1014.8 |
| 20260509020522 | 51 | 0 | 0.0 | 1.0 | 0.00 | 0.00 | 0.00 | 80 | 1014.7 |
| 20260509020414 | 52 | 269 | 0.0 | 0.0 | 0.00 | 0.00 | 0.00 | 79 | 1016.8 |
| 20260509020041 | 52 | 0 | 0.0 | 1.0 | 0.00 | 0.00 | 0.00 | 79 | 1014.9 |
| 20260509015521 | 52 | 0 | 0.0 | 1.0 | 0.00 | 0.00 | 0.00 | 79 | 1014.8 |
| 20260509015402 | 52 | 269 | 0.0 | 0.0 | 0.00 | 0.00 | 0.00 | 79 | 1016.7 |
| 20260509015021 | 52 | 0 | 0.0 | 0.0 | 0.00 | 0.00 | 0.00 | 78 | 1014.8 |
| 20260509014535 | 52 | 0 | 0.0 | 0.0 | 0.00 | 0.00 | 0.00 | 78 | 1014.7 |
| 20260509014327 | 52 | 269 | 0.0 | 0.0 | 0.00 | 0.00 | 0.00 | 78 | 1016.8 |
| 20260509014021 | 52 | 0 | 0.0 | 1.0 | 0.00 | 0.00 | 0.00 | 77 | 1014.8 |
| 20260509013522 | 52 | 0 | 0.0 | 1.0 | 0.00 | 0.00 | 0.00 | 77 | 1014.7 |
| 20260509013257 | 53 | 269 | 0.0 | 0.0 | 0.00 | 0.00 | 0.00 | 77 | 1016.8 |
| 20260509013044 | 52 | 0 | 0.0 | 1.0 | 0.00 | 0.00 | 0.00 | 77 | 1014.7 |
| 20260509012521 | 53 | 0 | 0.0 | 1.0 | 0.00 | 0.00 | 0.00 | 76 | 1014.5 |
| 20260509012246 | 53 | 269 | 0.0 | 0.0 | 0.00 | 0.00 | 0.00 | 75 | 1016.6 |
| 20260509012021 | 53 | 0 | 0.0 | 1.0 | 0.00 | 0.00 | 0.00 | 74 | 1014.5 |
| 20260509011553 | 53 | 0 | 0.0 | 1.0 | 0.00 | 0.00 | 0.00 | 73 | 1014.4 |
| 20260509011302 | 54 | 269 | 0.0 | 0.0 | 0.00 | 0.00 | 0.00 | 73 | 1016.4 |
| 20260509011020 | 54 | 0 | 0.0 | 1.0 | 0.00 | 0.00 | 0.00 | 72 | 1014.4 |
| 20260509010520 | 54 | 0 | 0.0 | 1.0 | 0.00 | 0.00 | 0.00 | 73 | 1014.4 |
| 20260509010259 | 55 | 269 | 0.0 | 0.0 | 0.00 | 0.00 | 0.00 | 72 | 1016.5 |
| 20260509010046 | 54 | 0 | 0.0 | 0.0 | 0.00 | 0.00 | 0.00 | 72 | 1014.4 |
| 20260509005522 | 55 | 0 | 0.0 | 1.0 | 0.00 | 0.00 | 0.00 | 71 | 1014.3 |
| 20260509005250 | 55 | 269 | 0.0 | 0.0 | 0.00 | 0.00 | 0.00 | 70 | 1016.3 |
| 20260509005020 | 55 | 0 | 0.0 | 1.0 | 0.00 | 0.00 | 0.00 | 70 | 1014.2 |
| 20260509004548 | 56 | 0 | 0.0 | 1.0 | 0.00 | 0.00 | 0.00 | 68 | 1014.2 |
| 20260509004229 | 56 | 269 | 0.0 | 0.0 | 0.00 | 0.00 | 0.00 | 67 | 1016.2 |
| 20260509004020 | 56 | 0 | 0.0 | 1.0 | 0.00 | 0.00 | 0.00 | 66 | 1014.2 |
| 20260509003518 | 56 | 0 | 0.0 | 1.0 | 0.00 | 0.00 | 0.00 | 66 | 1014.1 |
| 20260509003228 | 57 | 269 | 0.0 | 0.0 | 0.00 | 0.00 | 0.00 | 64 | 1016.1 |
| 20260509003035 | 57 | 0 | 0.0 | 1.0 | 0.00 | 0.00 | 0.00 | 64 | 1014.1 |
| 20260509002520 | 57 | 0 | 0.0 | 1.0 | 0.00 | 0.00 | 0.00 | 62 | 1014.1 |
| 20260509002159 | 58 | 269 | 0.0 | 0.0 | 0.00 | 0.00 | 0.00 | 60 | 1016.1 |
| 20260509002022 | 58 | 0 | 0.0 | 1.0 | 0.00 | 0.00 | 0.00 | 60 | 1014.0 |
| 20260509001542 | 59 | 0 | 0.0 | 2.0 | 0.00 | 0.00 | 0.00 | 59 | 1013.9 |
| 20260509001155 | 60 | 269 | 0.0 | 0.0 | 0.00 | 0.00 | 0.00 | 59 | 1016.0 |
| 20260509001020 | 59 | 0 | 0.0 | 2.0 | 0.00 | 0.00 | 0.00 | 58 | 1013.9 |
| 20260509000520 | 60 | 269 | 0.0 | 2.0 | 0.00 | 0.00 | 0.00 | 56 | 1013.8 |
| 20260509000041 | 61 | 314 | 0.0 | 1.0 | 0.00 | 0.00 | 0.00 | 56 | 1013.9 |
| 20260508235521 | 62 | 150 | 0.0 | 2.0 | 0.00 | 0.00 | 0.00 | 53 | 1013.8 |
| 20260508235021 | 63 | 0 | 0.0 | 3.0 | 0.00 | 0.00 | 0.00 | 48 | 1013.9 |
| 20260508235014 | 64 | 141 | 0.0 | 0.0 | 0.00 | 0.00 | 0.00 | 48 | 1016.0 |
| 20260508234541 | 64 | 141 | 0.0 | 4.0 | 0.00 | 0.00 | 0.00 | 43 | 1014.0 |
| 20260508234020 | 64 | 142 | 1.0 | 5.0 | 0.00 | 0.00 | 0.00 | 41 | 1013.9 |
| 20260508233942 | 65 | 144 | 1.0 | 3.0 | 0.00 | 0.00 | 0.00 | 41 | 1016.0 |
| 20260508233521 | 64 | 139 | 2.0 | 5.0 | 0.00 | 0.00 | 0.00 | 40 | 1014.1 |
| 20260508233053 | 65 | 147 | 2.0 | 4.0 | 0.00 | 0.00 | 0.00 | 39 | 1014.1 |
| 20260508232952 | 65 | 143 | 1.0 | 6.0 | 0.00 | 0.00 | 0.00 | 39 | 1016.2 |
| 20260508232520 | 65 | 174 | 1.0 | 6.0 | 0.00 | 0.00 | 0.00 | 40 | 1014.2 |
| 20260508232021 | 65 | 145 | 1.0 | 7.0 | 0.00 | 0.00 | 0.00 | 39 | 1014.1 |
| 20260508232002 | 66 | 167 | 2.0 | 8.0 | 0.00 | 0.00 | 0.00 | 39 | 1016.1 |
| 20260508231541 | 66 | 183 | 3.0 | 9.0 | 0.00 | 0.00 | 0.00 | 37 | 1014.1 |
| 20260508231021 | 66 | 146 | 4.0 | 10.0 | 0.00 | 0.00 | 0.00 | 37 | 1014.1 |
| 20260508231005 | 66 | 151 | 3.0 | 8.0 | 0.00 | 0.00 | 0.00 | 37 | 1016.2 |
| 20260508230520 | 66 | 149 | 2.0 | 10.0 | 0.00 | 0.00 | 0.00 | 37 | 1014.0 |
| 20260508230040 | 66 | 175 | 4.0 | 9.0 | 0.00 | 0.00 | 0.00 | 36 | 1014.0 |
| 20260508225523 | 67 | 151 | 3.0 | 9.0 | 0.00 | 0.00 | 0.00 | 37 | 1013.8 |
| 20260508225021 | 67 | 96 | 1.0 | 6.0 | 0.00 | 0.00 | 0.00 | 38 | 1013.8 |
| 20260508224540 | 68 | 184 | 2.0 | 9.0 | 0.00 | 0.00 | 0.00 | 37 | 1013.9 |
| 20260508224020 | 68 | 138 | 3.0 | 9.0 | 0.00 | 0.00 | 0.00 | 37 | 1013.8 |
| 20260508223634 | 69 | 214 | 3.0 | 10.0 | 0.00 | 0.00 | 0.00 | 37 | 1016.0 |
| 20260508223520 | 68 | 166 | 4.0 | 9.0 | 0.00 | 0.00 | 0.00 | 37 | 1013.9 |
| 20260508223046 | 68 | 200 | 3.0 | 9.0 | 0.00 | 0.00 | 0.00 | 38 | 1013.9 |
| 20260508222613 | 69 | 164 | 4.0 | 10.0 | 0.00 | 0.00 | 0.00 | 37 | 1015.9 |
| 20260508222520 | 69 | 156 | 3.0 | 12.0 | 0.00 | 0.00 | 0.00 | 37 | 1013.9 |
| 20260508222020 | 69 | 197 | 5.0 | 12.0 | 0.00 | 0.00 | 0.00 | 35 | 1013.8 |
| 20260508221629 | 70 | 185 | 3.0 | 7.0 | 0.00 | 0.00 | 0.00 | 35 | 1015.7 |
| 20260508221541 | 69 | 170 | 4.0 | 8.0 | 0.00 | 0.00 | 0.00 | 38 | 1013.6 |
| 20260508221022 | 69 | 199 | 2.0 | 8.0 | 0.00 | 0.00 | 0.00 | 37 | 1013.7 |
| 20260508220601 | 69 | 166 | 2.0 | 7.0 | 0.00 | 0.00 | 0.00 | 37 | 1015.6 |
| 20260508220520 | 68 | 237 | 4.0 | 8.0 | 0.00 | 0.00 | 0.00 | 36 | 1013.6 |
| 20260508220036 | 68 | 209 | 2.0 | 9.0 | 0.00 | 0.00 | 0.00 | 39 | 1013.5 |
| 20260508215621 | 69 | 133 | 3.0 | 8.0 | 0.00 | 0.00 | 0.00 | 36 | 1015.6 |
| 20260508215520 | 68 | 137 | 3.0 | 9.0 | 0.00 | 0.00 | 0.00 | 38 | 1013.6 |
| 20260508215021 | 69 | 225 | 3.0 | 9.0 | 0.00 | 0.00 | 0.00 | 35 | 1013.6 |
| 20260508214601 | 70 | 260 | 3.0 | 9.0 | 0.00 | 0.00 | 0.00 | 36 | 1015.7 |
| 20260508214548 | 69 | 179 | 4.0 | 9.0 | 0.00 | 0.00 | 0.00 | 36 | 1013.7 |
| 20260508214020 | 69 | 215 | 3.0 | 11.0 | 0.00 | 0.00 | 0.00 | 35 | 1013.7 |
| 20260508213520 | 69 | 166 | 5.0 | 11.0 | 0.00 | 0.00 | 0.00 | 35 | 1013.8 |
| 20260508213042 | 69 | 226 | 4.0 | 9.0 | 0.00 | 0.00 | 0.00 | 35 | 1013.7 |
| 20260508212521 | 69 | 299 | 3.0 | 7.0 | 0.00 | 0.00 | 0.00 | 34 | 1013.7 |
| 20260508212353 | 70 | 201 | 1.0 | 6.0 | 0.00 | 0.00 | 0.00 | 36 | 1015.7 |
| 20260508212026 | 69 | 209 | 1.0 | 8.0 | 0.00 | 0.00 | 0.00 | 38 | 1013.7 |
| 20260508211543 | 69 | 351 | 2.0 | 9.0 | 0.00 | 0.00 | 0.00 | 34 | 1013.6 |
| 20260508211417 | 70 | 357 | 3.0 | 7.0 | 0.00 | 0.00 | 0.00 | 35 | 1015.6 |
| 20260508211021 | 70 | 228 | 5.0 | 9.0 | 0.00 | 0.00 | 0.00 | 33 | 1013.8 |
| 20260508210521 | 70 | 209 | 3.0 | 8.0 | 0.00 | 0.00 | 0.00 | 34 | 1013.8 |
| 20260508210035 | 70 | 262 | 1.0 | 7.0 | 0.00 | 0.00 | 0.00 | 34 | 1013.9 |
| 20260508205520 | 69 | 157 | 2.0 | 10.0 | 0.00 | 0.07 | 0.00 | 34 | 1013.8 |
| 20260508205224 | 70 | 247 | 3.0 | 9.0 | 0.00 | 0.00 | 0.00 | 33 | 1016.0 |
| 20260508205020 | 70 | 245 | 4.0 | 10.0 | 0.00 | 0.07 | 0.00 | 34 | 1014.0 |
| 20260508204544 | 69 | 124 | 3.0 | 10.0 | 0.00 | 0.07 | 0.00 | 35 | 1014.0 |
| 20260508204232 | 70 | 173 | 4.0 | 9.0 | 0.00 | 0.00 | 0.00 | 35 | 1016.1 |
| 20260508204026 | 70 | 201 | 6.0 | 10.0 | 0.00 | 0.07 | 0.00 | 33 | 1014.3 |
| 20260508203520 | 70 | 255 | 4.0 | 10.0 | 0.00 | 0.07 | 0.00 | 33 | 1014.3 |
| 20260508203239 | 71 | 210 | 3.0 | 7.0 | 0.00 | 0.00 | 0.00 | 32 | 1016.5 |
| 20260508203045 | 70 | 234 | 4.0 | 10.0 | 0.00 | 0.07 | 0.00 | 33 | 1014.5 |
| 20260508202525 | 70 | 266 | 4.0 | 10.0 | 0.00 | 0.07 | 0.00 | 31 | 1014.4 |
| 20260508202306 | 71 | 288 | 3.0 | 10.0 | 0.00 | 0.00 | 0.00 | 34 | 1016.5 |
| 20260508202021 | 70 | 243 | 3.0 | 10.0 | 0.00 | 0.07 | 0.00 | 32 | 1014.5 |
| 20260508201537 | 70 | 170 | 2.0 | 10.0 | 0.00 | 0.07 | 0.00 | 33 | 1014.4 |
| 20260508201250 | 71 | 135 | 3.0 | 10.0 | 0.00 | 0.03 | 0.00 | 34 | 1016.5 |
| 20260508201023 | 70 | 208 | 2.0 | 11.0 | 0.00 | 0.07 | 0.00 | 30 | 1014.5 |
| 20260508200520 | 70 | 197 | 4.0 | 11.0 | 0.00 | 0.07 | 0.00 | 31 | 1014.6 |
| 20260508200255 | 70 | 130 | 3.0 | 10.0 | 0.00 | 0.06 | 0.00 | 34 | 1016.6 |
| 20260508200035 | 70 | 185 | 3.0 | 12.0 | 0.00 | 0.07 | 0.00 | 34 | 1014.6 |
| 20260508195520 | 70 | 191 | 3.0 | 12.0 | 0.00 | 0.11 | 0.00 | 33 | 1014.6 |
| 20260508195021 | 70 | 203 | 6.0 | 12.0 | 0.00 | 0.11 | 0.00 | 32 | 1014.6 |
| 20260508194541 | 71 | 181 | 5.0 | 10.0 | 0.00 | 0.11 | 0.00 | 32 | 1014.4 |
| 20260508194207 | 71 | 160 | 4.0 | 11.0 | 0.00 | 0.08 | 0.00 | 34 | 1016.5 |
| 20260508194020 | 71 | 95 | 4.0 | 10.0 | 0.00 | 0.11 | 0.00 | 34 | 1014.6 |
| 20260508193520 | 71 | 179 | 5.0 | 12.0 | 0.00 | 0.11 | 0.00 | 34 | 1014.6 |
| 20260508193054 | 71 | 193 | 6.0 | 12.0 | 0.00 | 0.11 | 0.00 | 37 | 1014.8 |
| 20260508192521 | 71 | 75 | 3.0 | 11.0 | 0.00 | 0.11 | 0.00 | 34 | 1014.9 |
| 20260508192115 | 71 | 152 | 4.0 | 9.0 | 0.00 | 0.10 | 0.00 | 33 | 1017.1 |
| 20260508192019 | 71 | 145 | 4.0 | 12.0 | 0.00 | 0.11 | 0.00 | 32 | 1015.2 |
| 20260508191543 | 70 | 158 | 5.0 | 12.0 | 0.00 | 0.11 | 0.00 | 34 | 1015.0 |
| 20260508191044 | 70 | 183 | 3.0 | 10.0 | 0.00 | 0.10 | 0.00 | 32 | 1017.1 |
| 20260508191020 | 70 | 171 | 2.0 | 11.0 | 0.00 | 0.11 | 0.00 | 32 | 1015.2 |
| 20260508190518 | 70 | 199 | 5.0 | 11.0 | 0.00 | 0.11 | 0.00 | 34 | 1015.3 |
| 20260508190036 | 71 | 169 | 5.0 | 11.0 | 0.00 | 0.11 | 0.00 | 33 | 1015.3 |
| 20260508185521 | 70 | 146 | 5.0 | 11.0 | 0.00 | 0.11 | 0.00 | 32 | 1015.4 |
| 20260508185020 | 70 | 129 | 4.0 | 11.0 | 0.00 | 0.11 | 0.00 | 32 | 1015.4 |
| 20260508184846 | 70 | 156 | 4.0 | 10.0 | 0.00 | 0.10 | 0.00 | 32 | 1017.5 |
| 20260508184546 | 70 | 205 | 6.0 | 11.0 | 0.00 | 0.11 | 0.00 | 32 | 1015.5 |
| 20260508184020 | 70 | 179 | 4.0 | 9.0 | 0.00 | 0.11 | 0.00 | 33 | 1015.5 |
| 20260508183816 | 70 | 151 | 3.0 | 8.0 | 0.00 | 0.10 | 0.00 | 33 | 1017.5 |
| 20260508183524 | 69 | 258 | 4.0 | 9.0 | 0.00 | 0.11 | 0.00 | 31 | 1015.6 |
| 20260508183041 | 69 | 161 | 2.0 | 7.0 | 0.00 | 0.11 | 0.00 | 34 | 1015.6 |
| 20260508182841 | 70 | 228 | 2.0 | 8.0 | 0.00 | 0.10 | 0.00 | 31 | 1017.6 |
| 20260508182521 | 69 | 62 | 3.0 | 9.0 | 0.00 | 0.11 | 0.00 | 30 | 1015.6 |
| 20260508182022 | 69 | 108 | 3.0 | 10.0 | 0.00 | 0.11 | 0.00 | 31 | 1015.7 |
| 20260508181813 | 70 | 175 | 3.0 | 8.0 | 0.00 | 0.10 | 0.00 | 33 | 1017.7 |
| 20260508181552 | 69 | 137 | 4.0 | 10.0 | 0.00 | 0.11 | 0.00 | 34 | 1015.7 |
| 20260508181020 | 69 | 103 | 2.0 | 10.0 | 0.00 | 0.11 | 0.00 | 33 | 1015.8 |
| 20260508180759 | 69 | 154 | 2.0 | 6.0 | 0.00 | 0.10 | 0.00 | 31 | 1017.9 |
| 20260508180520 | 69 | 189 | 2.0 | 7.0 | 0.00 | 0.11 | 0.00 | 32 | 1015.9 |
| 20260508180043 | 69 | 188 | 2.0 | 7.0 | 0.00 | 0.11 | 0.00 | 33 | 1015.9 |
| 20260508175752 | 69 | 261 | 1.0 | 6.0 | 0.00 | 0.10 | 0.00 | 36 | 1018.0 |
| 20260508175520 | 68 | 233 | 1.0 | 7.0 | 0.00 | 0.11 | 0.00 | 35 | 1016.0 |
| 20260508175018 | 68 | 80 | 2.0 | 5.0 | 0.00 | 0.11 | 0.00 | 35 | 1016.1 |
| 20260508174539 | 68 | 177 | 1.0 | 7.0 | 0.00 | 0.11 | 0.00 | 35 | 1016.2 |
| 20260508174020 | 69 | 257 | 2.0 | 10.0 | 0.00 | 0.11 | 0.00 | 34 | 1016.2 |
| 20260508173645 | 70 | 237 | 3.0 | 9.0 | 0.00 | 0.10 | 0.00 | 38 | 1018.3 |
| 20260508173521 | 69 | 216 | 2.0 | 10.0 | 0.00 | 0.11 | 0.00 | 37 | 1016.4 |
| 20260508173042 | 68 | 204 | 4.0 | 9.0 | 0.00 | 0.11 | 0.00 | 39 | 1016.3 |
| 20260508172705 | 68 | 149 | 1.0 | 5.0 | 0.00 | 0.10 | 0.00 | 37 | 1018.4 |
| 20260508172522 | 67 | 230 | 2.0 | 7.0 | 0.00 | 0.11 | 0.00 | 36 | 1016.4 |
| 20260508172022 | 67 | 245 | 1.0 | 7.0 | 0.00 | 0.11 | 0.00 | 35 | 1016.4 |
| 20260508171715 | 67 | 191 | 2.0 | 6.0 | 0.00 | 0.10 | 0.00 | 36 | 1018.5 |
| 20260508171544 | 67 | 146 | 3.0 | 7.0 | 0.00 | 0.11 | 0.00 | 37 | 1016.5 |
| 20260508171022 | 67 | 0 | 3.0 | 7.0 | 0.00 | 0.11 | 0.00 | 35 | 1016.4 |
| 20260508170723 | 67 | 170 | 3.0 | 6.0 | 0.00 | 0.10 | 0.00 | 37 | 1018.6 |
| 20260508170522 | 67 | 140 | 1.0 | 10.0 | 0.00 | 0.11 | 0.00 | 34 | 1016.5 |
| 20260508170042 | 67 | 136 | 4.0 | 10.0 | 0.00 | 0.11 | 0.00 | 35 | 1016.6 |
| 20260508165728 | 68 | 187 | 2.0 | 8.0 | 0.00 | 0.10 | 0.00 | 41 | 1018.7 |
| 20260508165522 | 67 | 190 | 1.0 | 8.0 | 0.00 | 0.11 | 0.00 | 36 | 1016.6 |
| 20260508165022 | 66 | 357 | 3.0 | 11.0 | 0.00 | 0.11 | 0.00 | 38 | 1016.7 |
| 20260508164709 | 67 | 80 | 3.0 | 8.0 | 0.00 | 0.10 | 0.00 | 38 | 1018.8 |
| 20260508164540 | 66 | 95 | 3.0 | 11.0 | 0.00 | 0.11 | 0.00 | 37 | 1016.8 |
| 20260508164025 | 67 | 101 | 4.0 | 11.0 | 0.00 | 0.11 | 0.00 | 38 | 1017.0 |
| 20260508163734 | 66 | 220 | 2.0 | 6.0 | 0.00 | 0.10 | 0.00 | 41 | 1019.1 |
| 20260508163520 | 66 | 326 | 1.0 | 9.0 | 0.00 | 0.11 | 0.00 | 41 | 1017.1 |
| 20260508163046 | 66 | 22 | 4.0 | 9.0 | 0.00 | 0.11 | 0.00 | 37 | 1017.2 |
| 20260508162744 | 67 | 56 | 2.0 | 6.0 | 0.00 | 0.10 | 0.00 | 39 | 1019.2 |
| 20260508162522 | 67 | 90 | 2.0 | 8.0 | 0.00 | 0.11 | 0.00 | 44 | 1017.3 |
| 20260508162022 | 66 | 199 | 3.0 | 6.0 | 0.00 | 0.11 | 0.00 | 41 | 1017.3 |
| 20260508161756 | 66 | 253 | 1.0 | 5.0 | 0.00 | 0.10 | 0.00 | 41 | 1019.3 |
| 20260508161536 | 65 | 249 | 2.0 | 5.0 | 0.00 | 0.11 | 0.00 | 44 | 1017.4 |
| 20260508161022 | 65 | 341 | 1.0 | 5.0 | 0.00 | 0.11 | 0.00 | 43 | 1017.5 |
| 20260508160738 | 65 | 255 | 1.0 | 4.0 | 0.00 | 0.10 | 0.00 | 46 | 1019.5 |
| 20260508160522 | 64 | 303 | 1.0 | 4.0 | 0.00 | 0.11 | 0.00 | 43 | 1017.5 |
| 20260508155524 | 65 | 299 | 1.0 | 6.0 | 0.00 | 0.11 | 0.00 | 41 | 1017.6 |
| 20260508155022 | 64 | 117 | 2.0 | 6.0 | 0.00 | 0.11 | 0.00 | 42 | 1017.6 |
| 20260508154615 | 64 | 200 | 1.0 | 6.0 | 0.00 | 0.10 | 0.00 | 39 | 1019.7 |
| 20260508154542 | 64 | 183 | 2.0 | 4.0 | 0.00 | 0.11 | 0.00 | 41 | 1017.7 |
| 20260508154025 | 63 | 153 | 0.0 | 7.0 | 0.00 | 0.11 | 0.00 | 41 | 1017.8 |
| 20260508153603 | 64 | 16 | 2.0 | 6.0 | 0.00 | 0.10 | 0.00 | 41 | 1019.9 |
| 20260508153525 | 63 | 24 | 3.0 | 7.0 | 0.00 | 0.11 | 0.00 | 41 | 1017.8 |
| 20260508153045 | 64 | 92 | 3.0 | 7.0 | 0.00 | 0.11 | 0.00 | 43 | 1017.8 |
| 20260508152525 | 63 | 53 | 1.0 | 6.0 | 0.00 | 0.11 | 0.00 | 48 | 1017.9 |
| 20260508152021 | 62 | 75 | 1.0 | 8.0 | 0.00 | 0.11 | 0.00 | 45 | 1017.8 |
| 20260508151546 | 62 | 226 | 2.0 | 8.0 | 0.00 | 0.11 | 0.00 | 45 | 1017.9 |
| 20260508151513 | 63 | 211 | 3.0 | 7.0 | 0.00 | 0.10 | 0.00 | 45 | 1020.0 |
| 20260508151023 | 63 | 257 | 4.0 | 8.0 | 0.00 | 0.11 | 0.00 | 49 | 1017.9 |
| 20260508150522 | 62 | 289 | 1.0 | 7.0 | 0.00 | 0.11 | 0.00 | 49 | 1018.1 |
| 20260508150041 | 62 | 292 | 2.0 | 7.0 | 0.00 | 0.11 | 0.00 | 50 | 1018.0 |
| 20260508145522 | 62 | 223 | 3.0 | 7.0 | 0.00 | 0.11 | 0.00 | 51 | 1017.9 |
| 20260508145352 | 62 | 226 | 1.0 | 4.0 | 0.00 | 0.10 | 0.00 | 55 | 1020.1 |
| 20260508145025 | 61 | 341 | 1.0 | 5.0 | 0.00 | 0.11 | 0.00 | 48 | 1018.0 |
| 20260508144539 | 61 | 0 | 0.0 | 4.0 | 0.00 | 0.11 | 0.00 | 54 | 1017.9 |
| 20260508144414 | 61 | 288 | 1.0 | 5.0 | 0.00 | 0.10 | 0.00 | 53 | 1020.0 |
| 20260508144024 | 61 | 332 | 1.0 | 6.0 | 0.00 | 0.11 | 0.00 | 54 | 1018.0 |
| 20260508143522 | 61 | 14 | 1.0 | 8.0 | 0.00 | 0.11 | 0.00 | 56 | 1017.9 |
| 20260508143418 | 61 | 6 | 1.0 | 5.0 | 0.00 | 0.10 | 0.00 | 58 | 1020.0 |
| 20260508143056 | 61 | 102 | 3.0 | 8.0 | 0.00 | 0.11 | 0.00 | 54 | 1017.9 |
| 20260508142524 | 60 | 314 | 1.0 | 4.0 | 0.00 | 0.11 | 0.00 | 58 | 1017.9 |
| 20260508142348 | 61 | 209 | 0.0 | 3.0 | 0.00 | 0.10 | 0.00 | 55 | 1019.9 |
| 20260508142022 | 60 | 347 | 0.0 | 4.0 | 0.00 | 0.11 | 0.00 | 58 | 1017.9 |
| 20260508141551 | 59 | 56 | 1.0 | 4.0 | 0.00 | 0.11 | 0.00 | 57 | 1017.9 |
| 20260508141319 | 59 | 26 | 0.0 | 2.0 | 0.00 | 0.10 | 0.00 | 57 | 1020.0 |
| 20260508141021 | 59 | 352 | 0.0 | 5.0 | 0.00 | 0.11 | 0.00 | 59 | 1017.9 |
| 20260508140522 | 58 | 318 | 0.0 | 5.0 | 0.00 | 0.11 | 0.00 | 60 | 1017.9 |
| 20260508140257 | 59 | 8 | 1.0 | 2.0 | 0.00 | 0.10 | 0.00 | 59 | 1019.9 |
| 20260508140043 | 58 | 75 | 2.0 | 5.0 | 0.00 | 0.11 | 0.00 | 58 | 1017.8 |
| 20260508135549 | 58 | 24 | 0.0 | 3.0 | 0.00 | 0.14 | 0.00 | 63 | 1017.8 |
| 20260508135320 | 58 | 5 | 0.0 | 1.0 | 0.00 | 0.10 | 0.00 | 64 | 1019.8 |
| 20260508135022 | 58 | 0 | 0.0 | 3.0 | 0.00 | 0.14 | 0.00 | 66 | 1017.8 |
| 20260508134543 | 57 | 0 | 0.0 | 2.0 | 0.00 | 0.14 | 0.00 | 65 | 1017.8 |
| 20260508134248 | 57 | 5 | 0.0 | 1.0 | 0.00 | 0.10 | 0.00 | 67 | 1019.8 |
| 20260508134022 | 56 | 307 | 0.0 | 2.0 | 0.00 | 0.14 | 0.00 | 70 | 1017.8 |
| 20260508133522 | 56 | 0 | 0.0 | 3.0 | 0.00 | 0.14 | 0.00 | 73 | 1017.7 |
| 20260508133235 | 56 | 320 | 0.0 | 1.0 | 0.00 | 0.11 | 0.00 | 74 | 1019.7 |
| 20260508133053 | 55 | 325 | 1.0 | 3.0 | 0.00 | 0.14 | 0.00 | 77 | 1017.7 |